This demonstration page uses our WeatherBlox Daily Observations layout. Learn more.

39.92423, -83.80882

Hourly Observations for May 17, 2015

Temp ( °F °C ) Dew Point ( °F °C ) Humidity (%) Winds ( mph kmh ) Pressure ( in mb ) Visibility ( mi km ) Precip ( " mm )
12:56 am 00:56 Mostly Cloudy with Mist and Fog 68 20 68 20 100 100 SSW 8 13 30.13 1020 5 8.0467 0 0.0254
1:16 am 01:16 Mostly Cloudy with Mist and Fog 68 20 68 20 100 100 S 7 11 30.12 1020 4 6.43736 0 0.0254
1:56 am 01:56 Mostly Cloudy with Mist and Fog 68 20 68 20 100 100 S 7 11 30.12 1020 5 8.0467 0.01 0.254
2:32 am 02:32 Mostly Cloudy with Mist and Fog 68 20 68 20 100 100 S 7 11 30.09 1019 2.5 4.02335 0.01 0.254
2:40 am 02:40 Mostly Cloudy with Mist and Fog 68 20 68 20 100 100 S 7 11 30.09 1019 4 6.43736 0.01 0.254
2:56 am 02:56 Mostly Cloudy with Mist and Fog 68 20 68 20 100 100 S 6 9 30.11 1020 2.5 4.02335 0.01 0.254
3:12 am 03:12 Cloudy with Mist and Fog 68 20 68 20 100 100 S 5 7 30.09 1019 3 4.82802 0.01 0.254
3:30 am 03:30 Cloudy with Mist and Fog 68 20 68 20 100 100 S 6 9 30.09 1019 4 6.43736 0.01 0.254
3:47 am 03:47 Cloudy with Mist and Fog 68 20 68 20 100 100 S 6 9 30.09 1019 4 6.43736 0.01 0.254
3:56 am 03:56 Cloudy with Mist and Fog 68 20 68 20 100 100 S 6 9 30.11 1020 5 8.0467 0.01 0.254
4:11 am 04:11 Cloudy with Mist and Fog 68 20 68 20 100 100 SSE 6 9 30.09 1019 4 6.43736 0 0
4:19 am 04:19 Cloudy with Mist and Fog 68 20 68 20 100 100 S 3 6 30.09 1019 5 8.0467 0 0
4:56 am 04:56 Mostly Cloudy with Mist and Fog 67 19.4 67 19.4 100 100 SSE 5 7 30.12 1020 5 8.0467 0 0
5:10 am 05:10 Mostly Cloudy with Mist and Fog 66 19 66 19 100 100 SSE 5 7 30.12 1020 4 6.43736 0 0
5:56 am 05:56 Cloudy with Mist and Fog 67 19.4 67 19.4 100 100 SSE 5 7 30.14 1021 3 4.82802 0 0
6:56 am 06:56 Mostly Cloudy with Mist and Fog 67 19.4 67 19.4 100 100 SE 5 7 30.16 1021 2.5 4.02335 0 0
7:14 am 07:14 Mostly Cloudy with Mist and Fog 66 19 66 19 100 100 SE 3 6 30.18 1022 2 3.21868 0 0
7:30 am 07:30 Mostly Cloudy with Mist and Fog 66 19 66 19 100 100 SSE 5 7 30.18 1022 2.5 4.02335 0 0
7:40 am 07:40 Partly Cloudy with Mist and Fog 68 20 68 20 100 100 SSE 6 9 30.15 1021 2.5 4.02335 0 0
7:56 am 07:56 Partly Cloudy with Mist and Fog 68 20 68 20 100 100 S 5 7 30.16 1021 3 4.82802 0 0
8:22 am 08:22 Cloudy with Mist and Fog 70 21 70 21 100 100 S 5 7 30.15 1021 3 4.82802 0 0
8:56 am 08:56 Cloudy with Mist and Fog 70 21.1 70 21.1 100 100 SSW 6 9 30.16 1021 4 6.43736 0 0
9:56 am 09:56 Mostly Cloudy with Mist and Fog 73 22.7 72 22.2 97 97 SSW 8 13 30.15 1021 4 6.43736 0 0
10:06 am 10:06 Mostly Cloudy with Mist and Fog 73 23 72 22 94 94 SSW 7 11 30.15 1021 4 6.43736 0 0
10:20 am 10:20 Partly Cloudy with Mist and Fog 73 23 72 22 94 94 SSW 7 11 30.12 1020 4 6.43736 0 0
10:56 am 10:56 Hazy 76 24.4 71 21.6 84 84 SSW 8 13 30.14 1021 5 8.0467 0 0
11:31 am 11:31 Mostly Cloudy with Haze 79 26 72 22 79 79 S 10 17 30.12 1020 5 8.0467 0 0
11:56 am 11:56 Mostly Cloudy with Haze 78 25.5 70 21.1 77 77 S 9 15 30.14 1021 5 8.0467 0 0
12:12 pm 12:12 Hazy 79 26 70 21 74 74 S 13 20 30.12 1020 5 8.0467 0 0
12:56 pm 12:56 Hazy 79 26.1 68 20 69 69 SSW 12 19 30.14 1021 5 8.0467 0 0
1:56 pm 13:56 Hazy 82 27.7 69 20.5 65 65 SW 14 22 30.12 1020 5 8.0467 0 0
2:56 pm 14:56 Hazy 84 28.8 69 20.5 61 61 SSW 12 19 30.11 1020 5 8.0467 0 0
3:56 pm 15:56 Hazy 81 27.2 70 21.1 69 69 SSW 15 24 30.09 1019 5 8.0467 0 0
4:56 pm 16:56 Hazy 82 27.7 70 21.1 67 67 SW 13 20 30.08 1019 5 8.0467 0 0
5:56 pm 17:56 Hazy 82 27.7 68 20 63 63 SSW 10 17 30.08 1019 5 8.0467 0 0
6:56 pm 18:56 Hazy 80 26.6 69 20.5 69 69 SSW 8 13 30.06 1018 5 8.0467 0 0
7:56 pm 19:56 Hazy 78 25.5 70 21.1 77 77 S 5 7 30.06 1018 5 8.0467 0 0
8:56 pm 20:56 Hazy 77 25 68 20 74 74 S 7 11 30.07 1018 6 9.65604 0 0
9:56 pm 21:56 Hazy 75 23.8 68 20 79 79 S 6 9 30.09 1019 6 9.65604 0 0
10:56 pm 22:56 Hazy 75 23.8 69 20.5 82 82 S 8 13 30.09 1019 6 9.65604 0 0
11:56 pm 23:56 Clear with Mist and Fog 73 22.7 69 20.5 87 87 S 6 9 30.1 1019 6 9.65604 0 0

Powered by AerisWeather